Home > Time Zones > World Clock > Weather > Italy > Turin > Past weeks

Flag for Italy Weather past 2 weeks in Turin, Italy

Now
57 °F

Passing clouds.


Feels Like: 57 °F
Forecast: 60 / 71 °F
Wind: 2 mph from Northwest

Location: Torino / Bric Della Croce

Current Time: Oct 1, 2014 at 8:10:56 AM

Latest Report: Oct 1, 2014 at 6:55 AM


Visibility: 5 mi

Pressure: 30.24 "Hg

Humidity: 88%

Dew point: 54 °F

Location of TurinLocation

Historic Weather in Turin — Graph

°F

Turin temperature yesterday

Maximum temperature yesterday: 64 °F (at 12:55 AM)
Minimum temperature yesterday: 57 °F (at 11:55 PM)
Average temperature yesterday: 62 °F

Past Weeks' High & Low Weather Summary

 TemperatureHumidityPressure
High73 °F (Sep 22, 4:55 PM)100% (Sep 16, 9:55 AM)30.39 "Hg (Sep 16, 9:55 AM)
Low54 °F (Sep 18, 1:55 PM)30% (Sep 22, 11:55 PM)29.83 "Hg (Sep 22, 5:55 PM)
Average61 °F80%30.13 "Hg
* Reported Sep 16 5:55 AM — Oct 1 5:55 AM, Turin, Weather by CustomWeather, © 2014

Note: Actual official high and low records may vary slightly from our data, if they occured in-between our weather recording intervals... More about our weather records

Advertising

Turin weather history for previous 24 hours

 ConditionsComfort  
Time TempWeatherWind HumidityBarometerVisibility
5:55 AM
Oct 1
57 °FLight rain. Fog.No wind100%30.24 "Hg1 mi
4:55 AM57 °FLight rain. Fog.3 mph100%30.24 "Hg1 mi
3:55 AM57 °FLight rain. Fog.3 mph100%30.24 "Hg1 mi
2:55 AM57 °FFog.No wind100%30.27 "Hg1 mi
1:55 AM59 °FLight rain. Fog.2 mph94%30.27 "Hg1 mi
12:55 AM59 °FLight rain. Fog.3 mph100%30.27 "Hg2 mi
11:55 PM
Sep 30
57 °FLight rain. Fog.2 mph100%30.30 "Hg2 mi
10:55 PM59 °FLight rain. Fog.3 mph100%30.30 "Hg2 mi
9:55 PM61 °FLight rain. Fog.6 mph100%30.30 "Hg2 mi
8:55 PM61 °FFog.2 mph100%30.30 "Hg1 mi
7:55 PM63 °FFog.No wind100%30.30 "Hg2 mi
6:55 PM63 °FFog.No wind94%30.30 "Hg2 mi
5:55 PM63 °FFog.2 mph83%30.30 "Hg2 mi
4:55 PM61 °FFog.3 mph100%30.30 "Hg2 mi
3:55 PM61 °FFog.3 mph100%30.30 "Hg1 mi
2:55 PM63 °FFog.No wind100%30.30 "Hg1 mi
1:55 PM63 °FFog.No wind100%30.33 "Hg1 mi
12:55 PM63 °FFog.2 mph100%30.33 "Hg1 mi
11:55 AM61 °FFog.No wind100%30.33 "Hg2 mi
10:55 AM61 °FFog.3 mph100%30.33 "Hg2 mi
9:55 AM63 °FLight rain. Fog.2 mph100%30.33 "Hg2 mi
8:55 AM63 °FPartly sunny.No wind88%30.30 "Hg4 mi
Weather by CustomWeather, © 2014

See weather overviewHow to use our weather pages